Regional Weather Roundup
Issued by NWS Charleston, WV

Home | Current Version | Previous Version | Graphics & Text | Print | Product List | Glossary On
Versions: 1 2 3 4 5 6 7 8 9 10 11 12 13 14 15 16 17 18 19 20 21 22 23 24 25 26 27 28 29 30 31 32 33 34 35 36 37 38 39 40 41 42 43 44 45 46 47 48 49 50
000
ASUS41 KRLX 091810
RWRRLX
West Virginia Regional Weather Roundup
National Weather Service Charleston WV
100 PM EST FRI DEC 09 2016

Note: "fair" indicates few or no clouds below 12,000 feet with no
significant weather and/or obstructions to visibility.

WVZ003-091900-
Northern Panhandle of West Virginia

CITY           SKY/WX    TMP DP  RH WIND       PRES   REMARKS
WHEELING       CLOUDY    24  17  74 W13G28    30.37F
$$

WVZ009-091900-
Northwest West Virginia

CITY           SKY/WX    TMP DP  RH WIND       PRES   REMARKS
PARKERSBURG    PTSUNNY   28  14  55 SW9       30.48F
$$

WVZ006-091900-
Western West Virginia

CITY           SKY/WX    TMP DP  RH WIND       PRES   REMARKS
HUNTINGTON     CLOUDY    25  14  63 W9        30.51F
$$

WVZ015-091900-
West Central West Virginia

CITY           SKY/WX    TMP DP  RH WIND       PRES   REMARKS
CHARLESTON     FLURRIES  27  14  58 VRB5      30.47F
$$

WVZ022-031-091900-
North Central West Virginia

CITY           SKY/WX    TMP DP  RH WIND       PRES   REMARKS
CLARKSBURG     CLOUDY    26  17  68 W12       30.40F
MORGANTOWN     CLOUDY    26  16  65 VRB7      30.38S
$$

WVZ025-035-042-045-091900-
Southern West Virginia

CITY           SKY/WX    TMP DP  RH WIND       PRES   REMARKS
BECKLEY        CLOUDY    21  12  68 W9        30.35F
LOGAN          CLOUDY    23  14  68 CALM      30.43F
BLUEFIELD      CLOUDY    19  10  68 W8        30.33F WCI   9
LEWISBURG      FLURRIES  23  10  58 NW8       30.34F
$$

WVZ047-091900-
Northern Mountains of West Virginia

CITY           SKY/WX    TMP DP  RH WIND       PRES   REMARKS
ELKINS         LGT SNOW  21  14  74 W10       30.35F WCI  10
$$

WVZ052-091900-
Eastern Panhandle of West Virginia

CITY           SKY/WX    TMP DP  RH WIND       PRES   REMARKS
MARTINSBURG    MOSUNNY   35  15  44 W21       30.32F
PETERSBURG     CLOUDY    33  17  52 NW14G21   30.37S
$$




USA.gov is the U.S. government's official web portal to all federal, state and local government web resources and services.